| time (UTC) | temp F | wind direction | speed MPH | gust MPH | rain 1hr in | rain 24hr in | rain mn in | humidity % | barometer mb |
| 20260504130625 | 68 | 112 | 2.0 | 3.0 | 0.00 | 0.00 | 0.00 | 71 | 1024.2 |
| 20260504110721 | 64 | 112 | 2.0 | 4.0 | 0.00 | 0.00 | 0.00 | 79 | 1024.5 |
| 20260504081423 | 61 | 126 | 2.0 | 4.0 | 0.00 | 0.00 | 0.00 | 88 | 1024.6 |
| 20260504050021 | 53 | 135 | 0.0 | 0.0 | 0.00 | 0.00 | 0.00 | 97 | 1023.6 |
| 20260504045024 | 53 | 135 | 0.0 | 0.0 | 0.00 | 0.00 | 0.00 | 97 | 1023.5 |
| 20260504044021 | 52 | 135 | 1.0 | 2.0 | 0.00 | 0.00 | 0.00 | 97 | 1023.6 |
| 20260504043022 | 52 | 135 | 1.0 | 2.0 | 0.00 | 0.00 | 0.00 | 97 | 1023.4 |
| 20260504041020 | 52 | 135 | 0.0 | 0.0 | 0.00 | 0.00 | 0.00 | 97 | 1023.4 |
| 20260504040030 | 52 | 135 | 0.0 | 1.0 | 0.00 | 0.00 | 0.00 | 97 | 1023.4 |
| 20260504035021 | 52 | 135 | 0.0 | 0.0 | 0.00 | 0.00 | 0.00 | 97 | 1023.4 |
| 20260504034022 | 52 | 135 | 1.0 | 2.0 | 0.00 | 0.00 | 0.00 | 97 | 1023.4 |
| 20260504025121 | 52 | 135 | 1.0 | 3.0 | 0.00 | 0.00 | 0.00 | 96 | 1023.5 |
| 20260504025023 | 52 | 135 | 0.0 | 1.0 | 0.00 | 0.00 | 0.00 | 96 | 1023.4 |
| 20260504024022 | 52 | 135 | 1.0 | 3.0 | 0.00 | 0.00 | 0.00 | 96 | 1023.5 |
| 20260504023122 | 52 | 135 | 1.0 | 2.0 | 0.00 | 0.00 | 0.00 | 96 | 1023.5 |
| 20260504021121 | 52 | 135 | 1.0 | 2.0 | 0.00 | 0.00 | 0.00 | 96 | 1023.4 |
| 20260504021023 | 52 | 135 | 1.0 | 2.0 | 0.00 | 0.00 | 0.00 | 96 | 1023.5 |
| 20260504020022 | 52 | 135 | 0.0 | 0.0 | 0.00 | 0.00 | 0.00 | 96 | 1023.4 |
| 20260504015023 | 53 | 135 | 1.0 | 2.0 | 0.00 | 0.00 | 0.00 | 96 | 1023.5 |
| 20260504014922 | 53 | 135 | 1.0 | 2.0 | 0.00 | 0.00 | 0.00 | 96 | 1023.5 |
| 20260504013921 | 53 | 135 | 2.0 | 2.0 | 0.00 | 0.00 | 0.00 | 96 | 1023.5 |
| 20260504012921 | 53 | 135 | 1.0 | 2.0 | 0.00 | 0.00 | 0.00 | 96 | 1023.4 |
| 20260504011923 | 53 | 135 | 0.0 | 1.0 | 0.00 | 0.00 | 0.00 | 95 | 1023.5 |
| 20260504010920 | 54 | 135 | 1.0 | 2.0 | 0.00 | 0.00 | 0.00 | 95 | 1023.3 |
| 20260504005921 | 54 | 135 | 0.0 | 1.0 | 0.00 | 0.00 | 0.00 | 95 | 1023.4 |
| 20260504005021 | 54 | 135 | 1.0 | 2.0 | 0.00 | 0.00 | 0.00 | 95 | 1023.3 |
| 20260504004020 | 54 | 135 | 2.0 | 3.0 | 0.00 | 0.00 | 0.00 | 95 | 1023.3 |
| 20260504003022 | 54 | 135 | 2.0 | 2.0 | 0.00 | 0.00 | 0.00 | 95 | 1023.3 |
| 20260504002021 | 54 | 135 | 1.0 | 1.0 | 0.00 | 0.00 | 0.00 | 95 | 1023.3 |
| 20260504001021 | 53 | 112 | 0.0 | 0.0 | 0.00 | 0.00 | 0.00 | 95 | 1023.4 |
| 20260504000022 | 53 | 112 | 0.0 | 0.0 | 0.00 | 0.00 | 0.00 | 95 | 1023.4 |
| 20260503234120 | 54 | 112 | 2.0 | 3.0 | 0.00 | 0.00 | 0.00 | 95 | 1023.3 |
| 20260503233121 | 55 | 121 | 2.0 | 3.0 | 0.00 | 0.00 | 0.00 | 95 | 1023.4 |
| 20260503232121 | 55 | 112 | 3.0 | 4.0 | 0.00 | 0.00 | 0.00 | 95 | 1023.3 |
| 20260503231122 | 55 | 113 | 1.0 | 3.0 | 0.00 | 0.00 | 0.00 | 94 | 1023.2 |
| 20260503230121 | 55 | 142 | 2.0 | 4.0 | 0.00 | 0.00 | 0.00 | 94 | 1023.2 |
| 20260503224121 | 56 | 131 | 4.0 | 7.0 | 0.00 | 0.00 | 0.00 | 94 | 1023.3 |
| 20260503222220 | 56 | 115 | 4.0 | 7.0 | 0.00 | 0.00 | 0.00 | 94 | 1023.5 |
| 20260503222121 | 56 | 118 | 3.0 | 8.0 | 0.00 | 0.00 | 0.00 | 94 | 1023.5 |
| 20260503221121 | 56 | 116 | 4.0 | 7.0 | 0.00 | 0.00 | 0.00 | 93 | 1023.4 |
| 20260503220122 | 56 | 133 | 4.0 | 7.0 | 0.00 | 0.00 | 0.00 | 93 | 1023.2 |
| 20260503215127 | 56 | 118 | 3.0 | 6.0 | 0.00 | 0.00 | 0.00 | 93 | 1023.1 |
| 20260503214128 | 57 | 114 | 3.0 | 4.0 | 0.00 | 0.00 | 0.00 | 93 | 1023.0 |
| 20260503214027 | 57 | 126 | 3.0 | 5.0 | 0.00 | 0.00 | 0.00 | 93 | 1023.0 |
| 20260503213029 | 57 | 132 | 4.0 | 7.0 | 0.00 | 0.00 | 0.00 | 93 | 1023.0 |
| 20260503212128 | 57 | 122 | 4.0 | 6.0 | 0.00 | 0.00 | 0.00 | 93 | 1023.2 |
| 20260503211129 | 57 | 112 | 4.0 | 7.0 | 0.00 | 0.00 | 0.00 | 92 | 1023.3 |
| 20260503211029 | 57 | 123 | 4.0 | 7.0 | 0.00 | 0.00 | 0.00 | 92 | 1023.3 |
| 20260503210127 | 57 | 119 | 7.0 | 9.0 | 0.00 | 0.00 | 0.00 | 92 | 1023.2 |
| 20260503210028 | 57 | 120 | 3.0 | 6.0 | 0.00 | 0.00 | 0.00 | 91 | 1023.2 |
| 20260503205030 | 58 | 138 | 3.0 | 9.0 | 0.00 | 0.00 | 0.00 | 92 | 1023.1 |
| 20260503204028 | 58 | 112 | 4.0 | 7.0 | 0.00 | 0.00 | 0.00 | 92 | 1023.2 |
| 20260503203931 | 58 | 128 | 4.0 | 7.0 | 0.00 | 0.00 | 0.00 | 92 | 1023.2 |
| 20260503203028 | 58 | 116 | 2.0 | 4.0 | 0.00 | 0.00 | 0.00 | 92 | 1023.2 |
| 20260503202028 | 58 | 129 | 3.0 | 5.0 | 0.00 | 0.00 | 0.00 | 92 | 1023.3 |
| 20260503201929 | 58 | 123 | 3.0 | 7.0 | 0.00 | 0.00 | 0.00 | 92 | 1023.3 |
| 20260503201028 | 58 | 126 | 5.0 | 6.0 | 0.00 | 0.00 | 0.00 | 92 | 1023.1 |
| 20260503200126 | 58 | 128 | 4.0 | 7.0 | 0.00 | 0.00 | 0.00 | 92 | 1023.2 |
| 20260503195127 | 58 | 122 | 5.0 | 7.0 | 0.00 | 0.00 | 0.00 | 92 | 1023.1 |
| 20260503193128 | 58 | 125 | 4.0 | 6.0 | 0.00 | 0.00 | 0.00 | 92 | 1023.0 |
| 20260503193027 | 58 | 128 | 3.0 | 6.0 | 0.00 | 0.00 | 0.00 | 92 | 1023.1 |
| 20260503191028 | 59 | 135 | 3.0 | 6.0 | 0.00 | 0.00 | 0.00 | 92 | 1022.9 |
| 20260503185030 | 59 | 126 | 4.0 | 5.0 | 0.00 | 0.00 | 0.00 | 92 | 1022.8 |
| 20260503184028 | 59 | 118 | 2.0 | 4.0 | 0.00 | 0.00 | 0.00 | 92 | 1022.9 |
| 20260503183028 | 59 | 134 | 4.0 | 6.0 | 0.00 | 0.00 | 0.00 | 92 | 1022.7 |
| 20260503182928 | 59 | 126 | 3.0 | 5.0 | 0.00 | 0.00 | 0.00 | 92 | 1022.7 |
| 20260503181928 | 59 | 112 | 3.0 | 7.0 | 0.00 | 0.00 | 0.00 | 93 | 1022.5 |
| 20260503181028 | 59 | 126 | 3.0 | 7.0 | 0.00 | 0.00 | 0.00 | 93 | 1022.6 |
| 20260503180926 | 59 | 131 | 4.0 | 8.0 | 0.00 | 0.00 | 0.00 | 93 | 1022.6 |
| 20260503175927 | 59 | 132 | 3.0 | 6.0 | 0.00 | 0.01 | 0.00 | 93 | 1022.5 |
| 20260503174928 | 59 | 125 | 3.0 | 5.0 | 0.00 | 0.01 | 0.00 | 93 | 1022.6 |
| 20260503174828 | 59 | 133 | 3.0 | 4.0 | 0.00 | 0.01 | 0.00 | 93 | 1022.5 |
| 20260503173828 | 59 | 123 | 2.0 | 4.0 | 0.00 | 0.01 | 0.00 | 93 | 1022.3 |
| 20260503172828 | 59 | 133 | 3.0 | 8.0 | 0.00 | 0.01 | 0.00 | 93 | 1022.4 |
| 20260503172727 | 59 | 129 | 6.0 | 10.0 | 0.00 | 0.01 | 0.00 | 93 | 1022.4 |
| 20260503171729 | 59 | 135 | 1.0 | 3.0 | 0.00 | 0.01 | 0.00 | 93 | 1022.4 |
| 20260503170827 | 59 | 117 | 5.0 | 8.0 | 0.00 | 0.01 | 0.00 | 94 | 1022.5 |
| 20260503170730 | 59 | 124 | 3.0 | 5.0 | 0.00 | 0.01 | 0.00 | 94 | 1022.6 |
| 20260503170627 | 59 | 127 | 5.0 | 8.0 | 0.00 | 0.01 | 0.00 | 94 | 1022.6 |
| 20260503150429 | 57 | 127 | 4.0 | 6.0 | 0.00 | 0.01 | 0.00 | 92 | 1022.9 |